Wetbulb
68.88 67.02 67.12 62.94 56.14 52.29 46.81 46.49 48.69 47.66 46.54 47.71 48.58 48.66 49.54 49.25 49.61 46.91 55.38 58.68 57.87 59.81 60.44 62.17 61.46 61.88 61.05 60.00 60.54 61.44 60.76 60.24 60.97 61.76 62.06 61.42 62.66 62.54 62.30 62.65 62.29 61.37 61.22 61.15 61.32 61.38 61.51 61.19 61.10
65.78 66.34 62.51 56.85 51.24 46.96 47.26 47.98 46.45 46.92 47.84 47.82 47.09 47.21 46.92 47.10 51.38 52.54 56.24 57.92 58.01 59.54 60.54 61.06 62.23 60.81 61.48 59.44 61.18 60.06 59.37 60.60 59.84 61.56 61.30 61.76 61.57 61.43 61.32 62.07 60.88 60.84 60.87 60.99 61.06 60.75 60.75 60.73 60.72
66.61 61.55 58.78 52.39 48.22 46.78 47.03 47.39 46.36 46.57 47.46 47.05 46.10 47.48 47.74 47.61 51.63 54.89 56.95 58.05 57.71 59.08 60.02 60.45 61.92 60.35 60.81 59.48 59.83 60.08 59.04 59.76 59.27 60.55 60.66 60.64 60.81 61.11 61.08 60.36 60.45 60.50 59.95 60.50 60.28 60.10 59.96 60.48 59.77
62.24 60.52 55.28 50.17 46.31 47.51 48.47 47.97 47.00 46.16 46.54 47.31 47.12 45.75 47.69 52.46 53.49 56.30 56.66 57.16 58.06 58.53 59.81 61.08 61.03 60.96 60.10 60.49 59.20 59.01 58.98 58.36 58.44 60.06 59.75 60.27 59.96 60.29 60.20 60.11 59.92 59.60 59.36 58.78 59.86 60.23 59.82 59.51 58.94
59.28 56.44 49.80 47.01 46.11 47.52 48.33 48.34 47.24 46.14 46.55 46.47 46.40 45.36 46.67 51.45 52.87 55.09 56.42 56.82 57.56 58.01 59.27 60.54 61.13 60.62 60.17 60.58 58.81 58.51 58.07 57.24 57.51 59.42 58.44 59.56 59.17 59.09 59.32 59.20 59.02 58.91 59.11 59.05 59.62 59.41 59.34 59.02 58.65
57.03 54.52 48.36 45.89 45.72 47.62 48.48 48.43 47.63 46.73 46.50 45.91 46.01 45.30 47.53 50.45 52.21 54.05 56.02 56.78 57.75 57.92 58.64 59.74 60.82 60.67 60.10 59.99 58.36 58.12 57.31 56.17 56.41 57.53 57.65 57.45 56.61 56.53 57.78 57.63 57.80 57.82 58.47 58.38 57.95 58.56 58.56 58.14 57.02
54.55 51.41 47.06 46.16 45.66 46.25 48.21 47.94 46.78 46.72 46.11 46.60 47.88 44.81 46.86 48.41 52.84 54.46 55.43 56.51 57.03 57.55 58.19 58.73 59.14 59.86 60.05 59.82 58.31 57.71 56.32 54.84 54.53 55.95 55.71 56.23 56.58 55.64 55.10 56.75 56.58 56.76 57.96 57.48 57.20 56.76 57.05 57.00 55.81
52.98 51.02 45.48 45.52 45.19 46.47 47.86 47.22 48.10 47.47 46.59 47.62 48.65 45.81 46.09 49.90 51.61 53.81 54.51 55.11 55.81 56.53 57.24 57.44 57.68 57.98 58.14 58.11 58.48 56.99 55.87 53.68 53.81 54.82 54.36 54.99 53.47 53.41 54.06 54.37 56.01 57.02 57.10 56.91 56.52 55.66 54.36 54.97 54.66
53.90 48.22 44.86 45.80 45.56 47.41 46.98 47.47 47.67 48.16 47.13 46.79 47.56 47.23 47.17 49.21 51.37 52.40 52.46 52.93 53.88 54.50 55.59 55.92 56.21 56.56 56.75 57.26 57.64 56.45 54.63 53.58 53.56 53.72 53.62 51.01 51.78 50.96 49.92 52.31 54.69 56.09 54.76 55.21 55.33 54.30 52.99 51.16 52.54
50.93 47.31 46.73 48.95 48.80 48.12 47.58 48.13 47.79 46.64 45.60 45.70 45.80 46.42 46.94 47.97 50.59 50.83 50.82 51.39 52.29 53.26 54.29 54.89 55.20 55.30 55.41 55.86 56.00 54.26 52.91 52.83 51.70 50.42 48.92 49.27 49.00 49.69 51.59 51.69 52.22 51.75 52.95 51.83 52.20 52.30 50.58 48.31 48.29
48.22 47.04 48.55 48.73 49.28 49.94 48.29 47.63 47.78 46.66 45.20 47.32 46.64 47.02 46.23 46.36 48.93 50.10 50.81 51.93 52.34 53.30 53.88 53.90 54.12 54.04 54.10 54.80 54.82 54.09 52.34 51.68 51.15 49.86 48.69 48.47 48.39 48.54 48.98 49.71 49.12 48.88 49.04 48.28 48.18 48.36 48.52 48.10 48.68
45.92 47.18 48.63 48.84 48.48 48.26 47.79 47.67 46.31 46.37 49.49 48.82 48.86 47.45 46.25 45.78 46.93 49.02 49.77 50.40 50.96 51.57 53.43 53.79 53.51 52.73 52.49 53.38 54.00 53.68 52.27 50.62 49.76 49.55 47.98 48.35 48.29 48.19 48.33 48.36 48.09 48.21 48.35 47.61 47.87 48.33 48.05 48.12 47.79
45.55 45.95 47.42 47.74 46.78 47.00 47.22 46.19 46.72 45.47 48.50 47.46 46.41 46.52 46.53 46.93 46.81 47.53 49.23 49.92 50.29 50.62 52.33 52.86 52.84 52.27 51.79 51.18 52.30 52.20 51.59 51.37 49.64 48.35 47.84 47.75 47.59 47.60 47.57 47.66 47.55 47.89 48.09 47.82 47.79 47.69 47.62 47.78 47.73
46.45 46.19 45.51 46.54 45.98 46.36 45.15 44.45 45.74 45.80 45.57 45.63 45.78 46.19 46.69 47.37 46.96 45.73 45.28 47.18 47.94 49.97 50.97 52.36 51.73 52.15 51.33 50.70 50.99 51.26 50.96 50.47 49.13 48.33 47.88 47.37 47.45 47.24 46.98 47.10 46.99 47.02 47.47 47.84 47.42 47.12 47.02 47.21 47.05
45.80 44.44 44.94 44.59 44.94 44.72 45.33 41.80 42.94 45.92 45.26 44.99 45.20 45.57 45.43 46.08 46.15 46.53 47.36 46.70 47.55 47.97 49.82 49.67 50.48 51.07 50.28 50.23 50.52 50.44 50.31 48.83 48.22 48.22 47.80 47.24 47.18 46.91 46.78 46.85 46.61 46.99 47.07 46.41 47.01 46.86 46.95 46.90 46.97
42.44 41.75 40.07 43.55 44.37 44.05 44.31 41.36 43.13 43.90 44.22 45.16 44.64 44.69 44.36 45.60 46.14 47.21 46.91 46.55 46.63 47.02 46.17 48.02 48.37 48.25 48.64 49.14 49.26 48.98 49.45 48.90 47.96 47.59 47.69 47.19 47.18 46.98 46.49 46.13 46.25 46.76 46.53 46.67 46.59 46.66 46.35 46.42 46.19
39.92 38.21 38.79 40.25 43.86 43.31 42.58 41.53 44.03 43.75 43.52 44.48 44.64 44.57 44.31 44.91 45.44 46.52 46.87 46.89 46.85 46.51 46.33 45.95 46.55 46.89 46.78 47.11 47.32 47.41 47.93 47.53 47.52 47.21 46.88 47.13 46.97 47.02 46.23 46.15 46.49 46.17 46.06 46.08 45.99 46.20 45.42 45.24 45.72
38.96 37.76 37.79 37.51 40.91 42.45 41.13 41.18 43.66 43.52 42.12 43.13 43.88 44.24 43.88 44.54 46.37 47.83 47.29 47.34 47.01 46.54 46.11 46.35 45.99 46.26 46.33 46.19 45.46 45.52 45.68 46.33 46.57 46.44 46.46 46.63 46.58 46.66 46.41 45.98 45.92 45.76 45.46 45.51 45.15 44.75 45.15 44.88 44.75
38.69 38.51 37.40 39.35 41.20 40.34 38.96 38.60 41.47 42.91 41.42 41.36 42.45 43.17 43.73 44.41 46.49 46.85 47.35 47.72 46.87 46.46 45.80 45.47 45.17 46.01 45.17 44.36 44.47 44.65 45.16 46.27 45.91 46.35 46.53 46.33 46.47 46.39 46.26 45.94 45.82 45.45 44.90 45.64 45.29 44.87 44.16 44.76 45.25
39.82 38.44 37.50 39.15 40.33 39.88 38.35 39.72 41.72 42.43 43.45 43.00 43.08 43.40 43.69 44.13 45.37 46.05 46.25 46.30 46.37 47.54 46.54 46.06 45.49 46.32 45.37 45.84 45.41 46.25 45.85 46.39 47.19 47.23 47.08 46.53 46.42 46.40 46.12 45.91 45.83 45.72 44.78 44.47 44.33 43.89 43.99 44.18 44.53
38.72 37.54 36.94 37.29 38.95 38.91 37.84 40.62 41.55 43.82 42.66 43.47 43.23 43.27 43.26 43.89 44.97 45.58 45.47 46.02 46.13 46.00 46.62 46.43 46.50 46.41 46.08 46.12 45.34 44.48 44.85 44.94 44.74 45.31 45.71 46.24 46.22 46.37 46.02 46.30 45.90 45.67 45.07 44.80 44.80 44.02 43.37 43.23 43.57
37.26 38.90 38.76 37.76 37.59 35.52 37.57 37.37 40.41 41.54 42.15 43.15 44.40 43.60 43.49 43.80 44.04 43.99 45.02 45.70 45.99 46.86 46.75 46.82 46.70 46.30 46.14 45.81 45.36 45.01 45.94 46.16 48.12 48.62 47.38 47.04 46.55 46.56 46.30 46.24 45.85 45.70 45.35 44.63 44.87 44.65 44.24 43.30 42.81
38.28 39.94 38.28 39.42 36.85 36.54 36.94 36.93 41.07 40.00 42.94 43.84 44.82 44.97 45.13 45.32 44.51 45.57 45.63 46.15 46.80 46.65 46.36 46.50 46.10 45.78 46.59 45.33 45.91 45.71 45.21 46.93 48.15 46.25 45.90 46.39 46.72 46.43 46.22 46.19 46.11 45.42 45.41 45.22 45.10 44.73 43.56 43.61 43.77
39.64 39.94 39.20 37.74 37.18 35.65 36.06 36.03 39.08 40.91 42.34 44.26 44.84 44.76 45.02 44.89 45.62 45.49 46.31 46.05 46.36 46.73 46.33 45.94 45.01 45.41 45.63 45.42 45.24 45.69 46.00 46.14 45.46 45.65 44.96 46.45 46.30 46.26 45.82 45.64 45.84 45.95 45.52 45.09 45.05 44.93 44.64 43.98 43.38
39.63 37.19 34.45 36.09 35.05 34.62 35.66 35.16 40.25 41.94 42.81 44.75 44.87 45.44 45.41 45.14 45.35 45.80 46.71 46.96 47.08 47.09 46.49 45.44 44.84 45.35 44.84 44.51 44.78 45.00 46.00 46.67 46.34 46.34 46.36 45.69 45.67 45.17 45.60 45.63 45.43 45.54 45.58 45.50 45.41 44.68 44.30 44.04 43.51
36.78 37.15 34.60 32.90 32.24 34.22 35.03 34.61 41.84 41.94 43.11 43.91 44.52 45.23 45.42 46.07 45.87 46.43 47.05 47.32 47.39 47.59 46.98 46.05 45.78 45.61 45.34 44.34 44.67 44.91 45.59 45.51 45.61 46.00 46.15 45.80 46.03 46.74 47.05 46.07 45.80 45.61 45.64 45.22 45.04 44.97 44.73 44.56 44.18
36.84 35.54 38.29 33.41 32.18 32.76 35.23 38.63 43.03 42.42 42.58 42.84 43.75 44.56 46.46 47.02 47.06 47.30 47.25 47.06 47.38 47.55 47.79 47.06 46.54 46.55 46.30 45.94 45.50 44.65 44.50 44.15 44.84 45.49 45.65 45.86 46.14 45.77 45.87 45.81 45.49 45.43 45.23 45.03 44.85 44.50 44.17 44.29 43.91
38.08 38.89 34.60 34.31 31.99 32.21 34.28 34.98 40.06 40.71 42.36 41.99 42.68 44.22 46.17 47.48 47.40 47.67 47.53 47.52 47.57 47.52 47.99 47.52 46.99 47.16 47.97 47.47 46.45 45.84 45.38 44.70 44.96 45.21 44.69 44.94 45.54 45.57 45.61 45.01 44.84 45.13 44.91 44.83 44.42 44.03 44.26 43.73 44.13
34.94 34.34 34.59 35.37 34.25 33.78 33.79 38.37 41.98 43.46 43.81 42.60 43.42 44.42 46.10 46.80 47.30 47.71 47.51 47.37 47.58 47.38 47.62 48.23 48.06 48.10 48.45 48.11 47.94 46.97 46.63 45.54 45.02 44.59 45.10 45.14 45.37 45.03 44.47 44.38 44.70 44.40 44.42 44.63 44.06 43.91 44.02 42.86 43.40
35.63 35.62 36.32 34.95 33.07 30.67 31.87 37.73 43.47 42.74 43.04 42.86 43.35 44.00 45.39 45.59 47.38 47.52 47.42 47.17 47.18 47.74 48.04 48.46 47.96 47.75 48.31 47.63 47.19 47.27 47.25 46.77 45.81 45.43 45.52 45.35 44.84 45.24 44.73 44.47 44.03 44.41 44.35 44.65 43.90 43.58 43.63 42.98 42.65
MSLP
1016.42 1016.43 1016.30 1016.59 1018.17 1019.29 1020.32 1021.38 1021.83 1022.18 1022.81 1023.40 1023.72 1023.72 1023.99 1024.57 1024.89 1025.88 1026.01 1026.06 1026.11 1026.06 1026.31 1026.31 1026.61 1026.80 1027.01 1027.31 1027.19 1027.35 1027.48 1027.40 1027.30 1027.07 1027.11 1027.01 1027.02 1026.93 1026.89 1026.71 1026.59 1026.31 1026.21 1026.08 1025.89 1025.81 1025.54 1025.49 1025.45
1016.54 1016.32 1016.61 1017.65 1018.91 1019.89 1020.73 1021.51 1021.98 1022.54 1023.13 1023.76 1024.01 1024.29 1024.48 1024.90 1025.38 1025.78 1026.02 1026.14 1026.22 1026.26 1026.42 1026.51 1026.60 1026.92 1027.12 1027.45 1027.43 1027.65 1027.80 1027.61 1027.62 1027.43 1027.42 1027.42 1027.45 1027.31 1027.20 1027.11 1026.87 1026.68 1026.61 1026.43 1026.37 1026.25 1026.05 1025.94 1025.88
1016.50 1016.56 1017.45 1018.61 1019.85 1020.45 1021.08 1021.66 1022.19 1022.88 1023.40 1023.69 1024.10 1024.58 1024.79 1025.00 1025.56 1025.69 1025.94 1026.08 1026.42 1026.53 1026.68 1026.71 1026.83 1027.13 1027.29 1027.49 1027.64 1027.77 1027.93 1027.91 1027.92 1027.67 1027.61 1027.56 1027.46 1027.49 1027.48 1027.28 1027.20 1027.11 1027.11 1026.87 1026.72 1026.63 1026.50 1026.41 1026.52
1016.80 1017.40 1018.77 1019.15 1020.29 1021.00 1021.30 1021.81 1022.29 1022.98 1023.43 1023.68 1024.01 1024.50 1025.14 1025.30 1025.40 1025.67 1025.86 1026.22 1026.48 1026.73 1026.83 1026.93 1027.08 1027.20 1027.52 1027.58 1027.83 1027.99 1028.10 1028.21 1028.17 1027.93 1027.97 1027.83 1027.86 1027.70 1027.68 1027.66 1027.67 1027.60 1027.37 1027.35 1026.89 1026.60 1026.76 1026.68 1026.77
1017.55 1018.31 1019.27 1020.13 1020.71 1021.13 1021.49 1021.87 1022.31 1022.68 1023.15 1023.57 1024.02 1024.39 1024.92 1025.35 1025.63 1025.74 1025.91 1026.20 1026.45 1026.86 1027.02 1027.17 1027.20 1027.44 1027.59 1027.75 1028.00 1028.15 1028.29 1028.42 1028.39 1028.17 1028.27 1028.15 1028.21 1028.18 1028.11 1028.01 1027.92 1027.77 1027.55 1027.33 1027.17 1027.08 1027.01 1026.96 1026.99
1018.24 1019.05 1019.93 1020.53 1020.91 1021.24 1021.56 1021.89 1022.18 1022.57 1023.08 1023.69 1024.07 1024.46 1024.84 1025.31 1025.52 1025.70 1025.95 1026.26 1026.62 1026.92 1027.30 1027.37 1027.35 1027.51 1027.68 1027.84 1028.14 1028.29 1028.45 1028.59 1028.61 1028.50 1028.54 1028.53 1028.57 1028.56 1028.42 1028.38 1028.22 1028.04 1027.76 1027.61 1027.54 1027.45 1027.30 1027.31 1027.33
1018.62 1019.59 1020.44 1020.76 1021.11 1021.36 1021.44 1021.94 1022.17 1022.50 1022.97 1023.26 1023.66 1024.21 1024.76 1025.20 1025.45 1025.85 1026.12 1026.51 1026.91 1027.26 1027.44 1027.52 1027.67 1027.64 1027.72 1027.87 1028.20 1028.36 1028.56 1028.72 1028.82 1028.82 1028.89 1028.89 1028.98 1028.93 1028.83 1028.71 1028.42 1028.23 1027.95 1027.91 1027.84 1027.82 1027.65 1027.54 1027.66
1019.18 1019.98 1020.87 1021.12 1021.24 1021.29 1021.53 1021.89 1022.02 1022.38 1022.78 1023.41 1023.61 1023.88 1024.26 1024.63 1025.41 1026.11 1026.62 1026.89 1027.19 1027.42 1027.46 1027.68 1027.88 1027.91 1027.99 1028.14 1028.21 1028.44 1028.62 1028.74 1028.80 1028.87 1029.00 1029.02 1029.40 1029.34 1029.22 1029.16 1028.71 1028.41 1028.28 1028.12 1028.04 1028.12 1028.09 1027.96 1027.98
1019.39 1020.18 1020.94 1021.05 1021.24 1021.26 1021.71 1021.90 1022.14 1022.35 1022.76 1023.26 1023.48 1023.77 1024.49 1024.99 1025.75 1026.36 1026.75 1027.16 1027.44 1027.57 1027.62 1027.86 1027.95 1028.01 1028.19 1028.24 1028.34 1028.46 1028.61 1028.79 1028.97 1029.22 1029.27 1029.41 1029.44 1029.51 1029.49 1029.35 1028.94 1028.74 1028.70 1028.56 1028.47 1028.52 1028.56 1028.65 1028.43
1019.71 1020.49 1020.69 1020.77 1020.93 1021.08 1021.50 1021.75 1021.85 1022.41 1022.63 1023.03 1023.37 1023.92 1024.81 1025.22 1025.70 1025.90 1026.36 1026.65 1027.14 1027.25 1027.59 1027.78 1027.94 1028.08 1028.20 1028.29 1028.53 1028.71 1028.88 1029.12 1029.27 1029.30 1029.36 1029.42 1029.45 1029.44 1029.31 1029.34 1029.22 1029.21 1029.04 1029.07 1029.00 1028.94 1029.00 1028.93 1028.81
1020.20 1020.53 1020.69 1020.78 1020.88 1021.06 1021.39 1021.64 1021.81 1022.08 1022.31 1022.38 1022.75 1023.28 1024.55 1025.20 1025.63 1025.76 1026.05 1026.22 1026.54 1026.88 1027.44 1027.60 1027.89 1028.05 1028.19 1028.19 1028.45 1028.70 1028.96 1029.12 1029.31 1029.37 1029.44 1029.58 1029.64 1029.62 1029.44 1029.38 1029.38 1029.46 1029.46 1029.39 1029.38 1029.27 1029.15 1028.99 1028.88
1020.37 1020.66 1020.67 1020.84 1020.98 1021.22 1021.42 1021.57 1021.78 1021.93 1021.56 1021.88 1022.23 1022.95 1024.14 1024.74 1025.08 1025.19 1025.63 1026.02 1026.42 1026.75 1027.03 1027.29 1027.68 1027.91 1028.06 1028.18 1028.31 1028.47 1028.84 1029.10 1029.23 1029.31 1029.53 1029.59 1029.56 1029.49 1029.50 1029.51 1029.67 1029.63 1029.61 1029.47 1029.39 1029.21 1029.16 1029.05 1028.99
1020.42 1020.74 1020.85 1020.99 1021.15 1021.32 1021.44 1021.52 1021.78 1021.40 1021.43 1022.02 1022.52 1023.11 1023.69 1024.20 1024.54 1024.94 1025.37 1025.77 1026.14 1026.33 1026.66 1026.95 1027.33 1027.60 1027.74 1028.08 1028.15 1028.35 1028.62 1028.73 1028.99 1029.20 1029.34 1029.47 1029.53 1029.46 1029.54 1029.56 1029.55 1029.60 1029.59 1029.47 1029.26 1029.26 1029.12 1028.95 1028.88
1020.63 1020.77 1020.95 1021.10 1021.29 1021.45 1021.62 1021.67 1021.87 1021.09 1021.38 1021.95 1022.52 1022.93 1023.35 1023.64 1024.00 1024.78 1025.10 1025.10 1025.47 1025.78 1026.04 1026.39 1026.82 1027.16 1027.53 1027.76 1027.93 1028.02 1028.38 1028.58 1028.89 1028.94 1029.00 1029.18 1029.25 1029.33 1029.34 1029.44 1029.50 1029.46 1029.46 1029.42 1029.47 1029.43 1029.31 1029.08 1028.91
1020.72 1020.96 1021.02 1021.20 1021.40 1021.57 1021.67 1021.76 1021.36 1021.07 1021.49 1021.84 1022.39 1022.78 1023.16 1023.43 1023.93 1023.82 1023.94 1024.34 1024.66 1025.06 1025.55 1025.93 1026.31 1026.74 1027.23 1027.41 1027.60 1027.86 1028.01 1028.39 1028.54 1028.61 1028.76 1028.91 1029.05 1029.16 1029.15 1029.22 1029.20 1029.14 1029.28 1029.45 1029.42 1029.17 1029.06 1028.82 1028.70
1021.18 1021.36 1021.49 1021.33 1021.46 1021.63 1021.75 1021.26 1020.72 1021.13 1021.43 1021.63 1021.94 1022.40 1022.75 1022.88 1023.02 1023.34 1023.59 1023.83 1024.28 1024.71 1025.11 1025.43 1025.79 1026.15 1026.65 1026.95 1027.16 1027.40 1027.60 1027.98 1028.14 1028.29 1028.37 1028.47 1028.57 1028.72 1028.78 1028.77 1028.71 1028.77 1029.04 1029.18 1029.05 1028.92 1028.76 1028.56 1028.35
1021.77 1021.76 1021.80 1021.62 1021.62 1021.72 1021.86 1021.18 1020.60 1020.93 1021.29 1021.26 1021.52 1021.70 1022.12 1022.32 1022.50 1022.63 1022.89 1023.19 1023.65 1024.12 1024.63 1025.02 1025.44 1025.63 1025.94 1026.41 1026.84 1027.08 1027.31 1027.53 1027.59 1027.80 1027.80 1027.90 1028.12 1028.25 1028.37 1028.32 1028.18 1028.43 1028.54 1028.66 1028.70 1028.69 1028.71 1028.33 1028.12
1022.07 1022.04 1022.01 1022.03 1021.98 1021.76 1021.72 1020.91 1020.34 1020.23 1020.63 1020.54 1020.81 1021.07 1021.38 1021.57 1020.94 1021.58 1022.20 1022.67 1023.18 1023.64 1024.10 1024.51 1024.89 1025.17 1025.63 1026.16 1026.60 1026.89 1027.05 1027.01 1027.14 1027.21 1027.25 1027.45 1027.57 1027.76 1027.88 1027.87 1027.91 1028.16 1028.24 1028.24 1028.36 1028.35 1028.39 1028.31 1028.04
1021.88 1022.13 1022.22 1021.98 1022.08 1022.05 1021.58 1021.00 1019.90 1019.67 1019.88 1019.94 1020.18 1020.47 1020.54 1020.77 1020.71 1021.04 1021.46 1021.96 1022.61 1023.11 1023.60 1023.89 1024.30 1024.51 1025.27 1025.87 1026.18 1026.39 1026.20 1026.19 1026.30 1026.32 1026.44 1026.66 1026.83 1027.00 1027.22 1027.29 1027.38 1027.67 1027.74 1027.63 1027.90 1028.05 1028.13 1027.97 1028.07
1021.86 1022.14 1022.27 1022.08 1022.03 1022.13 1021.48 1020.39 1019.41 1019.19 1019.10 1019.23 1019.35 1019.62 1019.79 1020.14 1020.04 1020.35 1020.81 1021.35 1021.77 1022.09 1022.54 1023.10 1023.34 1023.72 1024.18 1024.62 1024.88 1025.09 1025.21 1025.23 1025.13 1025.32 1025.44 1025.68 1025.87 1026.09 1026.34 1026.53 1026.69 1026.91 1027.14 1027.30 1027.47 1027.69 1027.68 1027.71 1027.71
1022.06 1022.29 1022.44 1022.59 1022.15 1021.95 1021.41 1020.06 1019.01 1018.52 1018.52 1018.53 1018.69 1018.95 1019.23 1019.29 1019.37 1019.66 1020.22 1020.52 1021.11 1021.29 1021.49 1021.96 1022.31 1022.71 1023.13 1023.53 1024.33 1024.97 1025.31 1025.37 1025.15 1024.89 1024.72 1024.71 1025.07 1025.30 1025.59 1025.64 1025.77 1026.02 1026.36 1026.39 1026.61 1026.93 1027.19 1027.03 1027.22
1022.24 1022.23 1022.46 1022.57 1022.40 1021.93 1021.37 1020.21 1018.73 1018.29 1017.94 1017.85 1017.89 1018.23 1018.39 1018.65 1018.88 1019.26 1019.41 1019.66 1020.00 1020.13 1020.88 1021.30 1021.69 1022.04 1022.46 1023.02 1023.53 1023.89 1023.97 1023.99 1023.29 1023.46 1023.57 1023.87 1024.25 1024.42 1024.61 1024.77 1024.99 1025.13 1025.38 1025.41 1025.54 1026.03 1026.37 1026.81 1026.56
1022.35 1022.42 1022.65 1022.63 1022.40 1021.96 1021.19 1020.44 1018.13 1017.90 1017.47 1017.24 1017.33 1017.53 1017.68 1017.93 1018.20 1018.39 1018.69 1018.85 1019.20 1019.69 1020.09 1020.62 1021.12 1021.53 1021.90 1022.42 1022.84 1023.20 1023.25 1022.94 1022.93 1023.12 1023.14 1023.25 1023.42 1023.57 1023.76 1023.94 1024.01 1024.07 1024.23 1024.31 1024.64 1025.07 1025.46 1025.61 1025.65
1022.60 1022.77 1022.84 1022.73 1022.39 1021.99 1021.03 1020.43 1018.09 1017.26 1016.58 1016.70 1016.81 1017.02 1017.22 1017.48 1017.72 1018.03 1018.18 1018.56 1018.88 1019.34 1019.80 1020.21 1020.54 1020.72 1021.36 1021.84 1022.15 1022.32 1022.31 1022.47 1022.61 1022.50 1022.55 1022.39 1022.52 1022.73 1022.82 1022.95 1023.07 1023.12 1023.33 1023.49 1023.71 1024.01 1024.23 1024.38 1024.62
1022.77 1022.96 1023.02 1022.94 1022.52 1021.72 1021.10 1020.44 1017.38 1016.43 1016.24 1016.24 1016.44 1016.69 1016.97 1017.26 1017.41 1017.58 1017.84 1018.21 1018.60 1018.97 1019.28 1019.63 1020.01 1020.05 1020.62 1021.05 1021.33 1021.50 1021.51 1021.76 1021.67 1021.58 1021.58 1021.66 1021.60 1021.58 1021.43 1021.88 1022.03 1022.13 1022.34 1022.47 1022.71 1022.82 1022.93 1023.17 1023.64
1023.03 1022.97 1022.86 1022.64 1022.55 1021.68 1021.04 1019.47 1016.53 1016.15 1016.09 1016.30 1016.40 1016.55 1016.82 1016.96 1017.11 1017.28 1017.53 1017.81 1018.08 1018.35 1018.68 1019.07 1019.35 1019.50 1019.98 1020.26 1020.30 1020.58 1020.75 1020.92 1020.90 1020.71 1020.70 1020.69 1020.59 1020.43 1020.52 1020.77 1021.02 1021.19 1021.20 1021.39 1021.63 1021.78 1021.93 1022.20 1022.36
1023.14 1023.17 1022.91 1022.76 1023.03 1022.00 1019.98 1018.20 1016.33 1016.19 1016.34 1016.36 1016.39 1016.55 1016.57 1016.64 1016.80 1016.95 1017.17 1017.33 1017.47 1017.78 1018.11 1018.40 1018.65 1018.77 1019.11 1019.29 1019.57 1019.74 1019.99 1020.16 1019.92 1019.87 1020.00 1019.81 1019.76 1019.67 1019.88 1020.05 1020.12 1020.11 1020.20 1020.46 1020.68 1020.75 1020.89 1021.17 1021.40
1022.83 1023.07 1023.29 1023.04 1022.82 1021.82 1019.83 1018.34 1016.40 1016.03 1015.89 1016.12 1016.33 1016.27 1016.26 1016.24 1016.45 1016.68 1016.89 1016.91 1017.11 1017.31 1017.50 1017.73 1017.97 1018.07 1018.24 1018.56 1018.82 1018.93 1019.06 1019.14 1019.13 1019.28 1019.03 1019.01 1018.97 1019.06 1019.16 1019.35 1019.35 1019.39 1019.54 1019.65 1019.90 1020.07 1020.17 1020.28 1020.43
1023.21 1023.32 1023.52 1023.38 1022.77 1021.54 1020.03 1016.91 1014.65 1014.48 1014.70 1015.24 1015.71 1015.88 1015.91 1016.11 1016.25 1016.39 1016.55 1016.64 1016.85 1017.03 1017.17 1017.32 1017.50 1017.64 1017.68 1017.91 1018.03 1018.14 1018.16 1018.34 1018.50 1018.45 1018.34 1018.37 1018.47 1018.57 1018.65 1018.53 1018.53 1018.51 1018.52 1018.71 1019.05 1019.13 1019.27 1019.54 1019.73
1022.27 1022.35 1022.53 1022.90 1022.95 1022.25 1020.64 1016.14 1014.36 1014.51 1014.64 1014.93 1015.18 1015.43 1015.76 1016.07 1016.10 1016.22 1016.40 1016.59 1016.77 1016.88 1016.95 1016.95 1017.07 1017.21 1017.32 1017.44 1017.49 1017.49 1017.53 1017.64 1017.68 1017.54 1017.47 1017.68 1017.69 1017.74 1017.68 1017.76 1017.80 1017.73 1017.78 1017.88 1017.92 1018.10 1018.33 1018.45 1018.43
Wind_Speed
6 3 2 4 4 4 2 2 1 2 2 1 1 1 1 2 1 1 2 5 3 7 3 5 5 8 6 5 5 9 9 6 9 9 11 11 11 13 12 14 13 14 14 14 15 14 15 14 15
3 1 4 3 4 2 1 1 2 1 4 5 3 2 1 1 1 2 6 5 5 6 4 6 6 5 7 4 7 7 6 8 7 9 10 11 11 12 12 12 12 13 14 13 14 14 14 14 16
2 5 3 4 3 2 1 2 4 2 6 1 2 2 3 1 2 6 2 8 6 6 5 5 6 4 6 2 6 7 6 8 6 8 9 11 11 11 11 11 12 13 12 13 13 12 12 14 15
3 3 4 4 2 1 1 5 4 6 2 2 2 1 1 1 2 7 5 10 8 6 5 3 6 5 5 5 4 5 6 6 5 8 8 9 10 11 11 11 12 11 10 10 11 12 14 13 14
4 3 4 4 1 1 1 4 6 4 3 3 2 1 1 1 1 5 11 11 10 7 5 2 6 6 4 6 4 4 5 5 5 7 6 9 9 9 10 10 10 10 10 10 12 12 12 13 14
3 2 3 2 2 1 2 4 4 3 3 3 1 3 2 1 5 7 11 11 9 9 5 3 6 6 4 5 3 4 4 4 3 4 5 6 8 8 8 8 9 9 10 11 11 12 12 13 12
5 3 3 3 4 1 4 6 4 4 4 3 4 2 1 5 7 10 10 9 8 6 5 4 2 2 6 5 4 3 3 2 2 2 3 5 8 9 7 7 7 7 9 9 10 11 11 11 11
4 4 4 2 4 2 4 5 1 4 4 3 3 3 2 2 11 10 7 7 6 5 5 5 3 4 4 4 5 3 2 1 2 2 3 5 6 7 8 8 9 9 9 8 8 9 9 9 10
2 4 3 5 5 2 4 3 1 1 4 3 5 2 3 6 12 10 7 6 6 5 5 5 5 4 4 3 2 2 2 1 3 5 5 4 2 3 3 6 8 9 8 8 8 8 7 8 8
4 2 5 3 3 2 5 4 6 3 3 3 3 2 4 10 14 15 13 12 11 10 8 6 6 5 4 3 3 3 2 2 2 1 3 3 3 3 5 5 7 7 7 7 7 6 7 5 3
1 2 4 3 2 3 4 3 5 4 4 8 7 6 9 11 12 14 14 13 14 11 8 9 7 6 6 5 3 2 2 2 1 2 1 2 2 3 3 3 3 3 5 3 4 4 3 4 3
4 1 2 2 2 3 4 4 2 6 4 2 7 5 11 14 16 16 16 14 12 12 12 10 9 8 8 4 4 4 3 3 3 3 3 2 1 2 2 2 3 3 3 4 3 3 3 3 3
3 2 1 1 2 2 3 4 4 8 8 2 5 7 13 14 15 13 12 11 11 13 13 13 10 10 8 8 5 5 5 4 4 3 4 3 3 3 2 2 2 2 2 2 3 3 4 4 4
2 2 1 1 1 1 2 2 1 2 2 5 6 8 10 15 16 11 11 14 14 14 14 13 13 11 9 9 8 6 5 5 4 4 5 6 4 4 4 3 3 3 3 2 2 3 4 4 4
2 1 2 1 0 0 1 4 8 2 1 3 7 6 8 12 10 17 16 15 15 14 12 13 13 11 11 11 9 7 6 5 5 5 6 7 6 5 5 4 4 4 3 4 3 3 3 3 3
3 4 2 2 0 2 1 6 3 2 2 5 7 7 8 12 15 14 13 14 13 11 13 12 10 11 12 11 9 7 7 6 6 6 6 8 8 8 6 5 5 4 3 3 3 3 4 4 3
6 1 1 4 1 2 1 6 4 2 4 7 7 9 9 10 11 14 14 14 12 13 12 12 12 13 13 11 8 8 8 7 7 6 7 9 9 9 7 6 6 5 4 4 4 3 3 4 4
1 1 2 3 2 1 3 12 9 8 7 12 10 9 10 10 17 11 13 13 12 11 11 11 10 12 11 6 6 6 6 7 7 7 8 9 8 9 8 7 7 5 5 4 4 5 3 4 5
4 2 2 3 1 3 3 8 15 7 4 7 9 10 11 12 5 8 9 10 11 11 11 12 12 12 8 5 5 6 7 6 8 8 11 11 10 11 10 8 8 7 7 7 5 4 5 3 2
2 1 3 4 1 1 4 12 6 4 4 3 5 8 11 8 9 8 8 8 11 12 13 12 14 12 11 9 5 4 3 5 6 5 10 12 12 12 11 10 9 9 7 8 8 7 3 3 3
1 3 2 3 4 1 5 6 4 2 3 3 5 5 6 10 11 7 8 11 9 13 14 14 14 14 12 13 6 3 2 3 4 6 7 10 12 13 13 13 11 10 9 8 9 9 9 6 4
2 3 2 2 3 2 3 3 4 2 6 3 4 4 6 7 6 6 7 9 12 13 9 12 12 13 12 12 10 13 10 9 7 7 6 7 11 13 14 14 13 12 9 11 10 9 9 7 8
3 2 1 1 1 2 1 0 5 2 2 3 2 3 3 3 5 6 7 8 8 7 10 10 11 11 11 12 12 10 12 10 7 5 8 9 9 12 12 14 14 14 11 12 12 11 12 10 8
5 3 4 3 2 2 1 1 4 5 6 3 2 2 2 2 2 4 5 4 5 4 6 7 10 12 10 11 13 14 14 11 9 9 9 8 8 8 13 14 13 13 12 13 12 13 14 13 12
3 4 3 1 1 4 2 1 9 5 5 5 5 3 2 2 2 2 3 4 4 5 6 7 9 11 10 12 13 14 14 12 13 12 9 10 8 8 12 13 13 12 13 14 13 13 14 14 12
4 4 5 4 3 3 2 6 5 5 3 4 4 3 3 3 2 3 3 3 4 5 6 7 8 10 9 11 13 12 13 9 10 12 10 9 9 9 10 11 12 14 15 14 14 11 11 13 13
4 3 2 6 2 1 3 7 8 4 5 5 7 4 5 4 3 3 3 4 5 4 5 6 7 8 9 10 9 11 11 13 12 13 11 9 11 9 10 11 11 13 14 14 14 11 13 13 13
2 3 3 2 4 5 4 6 6 7 10 7 7 8 6 4 3 3 3 3 3 4 3 4 6 7 7 6 8 8 10 12 12 10 13 12 11 11 11 10 12 12 12 13 13 11 13 14 11
3 2 3 1 2 4 2 7 7 12 14 14 11 9 8 6 5 4 3 3 3 2 3 3 4 5 5 4 5 7 8 9 9 10 11 11 10 10 11 11 11 12 12 12 12 13 13 14 13
3 6 6 5 5 1 1 9 1 5 7 7 10 9 6 6 6 4 4 3 2 2 3 3 3 3 3 3 4 5 6 6 8 9 10 9 10 9 11 10 11 12 12 12 14 14 13 15 15
Wind_Direction
340 354 88 43 56 61 72 86 126 107 117 327 45 188 50 44 168 19 349 180 157 146 135 131 160 103 96 84 60 62 68 69 46 40 54 53 52 50 44 45 49 47 43 43 46 48 45 53 52
337 339 50 86 76 49 33 116 129 171 134 134 114 100 118 124 185 116 136 204 174 135 113 123 125 111 93 95 66 73 70 56 52 42 55 57 56 53 51 46 53 52 47 47 49 48 41 52 53
125 32 70 79 94 105 110 171 142 127 150 154 125 27 142 138 170 174 208 159 153 134 133 142 117 136 108 92 73 67 66 63 49 64 56 65 57 61 65 58 54 54 48 45 47 50 51 58 52
38 27 62 72 88 121 150 157 145 139 212 212 120 120 214 216 165 180 151 155 152 148 149 186 154 136 117 102 79 76 70 62 52 63 52 65 59 53 54 58 54 48 59 51 42 54 52 52 58
40 58 66 81 107 112 177 159 164 151 141 154 175 156 239 207 208 176 164 160 161 159 160 206 161 153 160 107 96 89 76 65 57 51 61 54 53 57 50 55 50 50 41 56 46 49 53 48 52
59 87 83 162 185 154 180 174 173 137 142 142 151 160 229 195 184 173 162 164 165 161 162 170 181 161 170 132 119 103 82 70 62 51 68 68 60 54 52 48 46 46 42 52 49 45 51 56 52
106 81 128 139 165 202 197 158 171 170 153 222 148 168 207 221 199 164 166 160 162 161 167 163 59 154 176 155 144 135 110 79 82 69 69 61 34 43 49 38 41 29 45 50 51 48 39 59 59
99 92 116 173 176 209 166 175 121 165 201 90 177 209 219 180 161 153 153 159 165 171 186 171 135 115 94 73 156 153 131 107 109 122 73 44 43 29 28 9 9 29 30 36 46 46 59 48 70
127 75 153 185 168 165 152 171 133 128 133 214 192 219 33 128 140 147 160 173 179 198 201 188 174 156 136 139 156 183 170 199 64 51 18 18 2 7 16 9 10 15 25 24 26 46 58 60 51
70 102 194 179 180 170 174 191 185 175 181 231 239 195 107 153 163 173 183 190 195 202 201 202 194 187 182 181 148 137 118 87 89 54 2 358 357 356 351 358 3 9 24 20 25 35 39 41 48
111 131 175 183 162 161 173 216 172 176 241 223 208 201 160 174 182 190 197 201 202 206 203 200 200 205 203 205 189 189 183 191 208 243 278 335 345 344 329 335 347 353 12 15 8 7 17 18 13
92 124 161 155 138 135 172 132 225 201 225 99 221 160 166 183 193 199 201 204 201 204 208 205 204 204 211 212 208 212 209 210 222 231 228 241 254 276 291 298 338 334 354 349 351 345 344 347 350
79 186 138 120 117 126 131 237 245 247 242 182 119 161 183 194 205 210 212 213 207 213 210 210 204 208 211 210 215 216 216 222 223 226 223 220 231 250 260 263 263 286 298 307 317 328 331 331 337
152 138 89 104 77 81 224 267 27 270 26 169 177 197 201 205 204 204 210 217 212 215 216 208 211 211 210 216 219 224 217 226 224 228 228 220 227 236 240 246 251 253 254 266 302 321 323 321 318
89 81 7 15 346 140 109 257 233 269 135 212 214 219 219 222 205 216 215 217 214 217 217 212 212 214 213 220 226 228 226 221 230 232 231 229 228 234 243 245 244 246 236 254 266 270 270 280 292
56 57 44 332 38 351 77 277 262 34 190 240 234 230 231 229 225 227 223 223 217 217 215 214 210 213 218 221 224 228 229 227 234 234 232 230 229 226 231 237 241 236 235 244 256 278 288 282 281
13 121 347 330 344 334 115 274 255 167 212 256 240 235 235 246 244 235 228 226 221 219 218 218 211 216 219 222 225 231 235 232 234 234 234 233 231 227 230 236 242 232 233 229 242 247 262 284 292
244 23 304 252 317 334 276 272 282 275 239 253 253 236 236 240 243 233 226 226 225 220 219 222 216 220 219 221 227 238 242 241 238 236 236 233 231 227 226 234 240 231 238 238 227 241 236 275 293
127 125 255 259 141 319 250 277 286 299 254 267 247 239 241 241 266 239 230 221 218 221 217 218 217 219 196 199 213 233 234 231 236 231 234 231 230 227 225 233 235 222 231 239 234 243 251 262 259
98 74 296 288 307 4 344 292 275 273 266 232 253 248 248 249 252 243 231 216 212 220 217 214 219 211 204 204 199 202 202 224 234 229 233 230 228 226 225 229 233 226 227 228 224 217 229 245 220
174 182 235 235 322 195 316 292 324 294 311 280 252 249 252 248 260 255 231 221 212 220 215 214 216 215 209 208 194 192 215 247 238 230 239 230 227 226 224 226 229 229 223 230 222 213 214 237 199
295 176 141 302 13 262 0 260 284 295 305 259 277 266 263 258 247 239 229 218 216 226 214 218 216 216 214 200 207 214 224 233 227 235 231 228 220 229 228 228 227 228 223 227 225 217 218 218 235
217 102 81 82 87 3 299 99 262 324 226 227 236 260 272 254 230 231 222 225 224 218 217 217 214 218 213 200 210 214 230 240 251 241 243 238 228 226 227 227 227 228 223 229 226 219 214 214 229
148 93 50 57 43 337 0 121 269 193 194 194 225 258 272 277 244 237 241 223 229 221 218 213 212 223 210 205 209 216 227 233 241 243 248 248 243 232 227 225 227 230 226 226 224 224 222 217 220
83 63 355 355 353 222 17 12 249 232 220 186 180 207 254 271 247 238 224 213 226 225 216 210 212 231 211 212 217 219 228 228 236 246 246 250 246 236 233 223 223 225 226 226 223 221 222 221 220
177 158 166 223 204 272 12 234 247 222 233 227 263 262 280 262 242 249 250 237 235 229 215 210 217 234 215 217 227 222 225 229 235 241 239 246 244 249 242 225 227 229 228 225 222 223 224 222 225
177 186 168 105 29 345 237 281 279 219 270 241 232 243 234 224 243 263 256 234 238 233 225 214 219 239 229 227 228 228 228 228 234 239 239 240 246 248 243 234 230 229 229 227 223 225 226 226 226
161 144 93 15 174 242 263 271 237 204 214 217 222 221 231 233 260 252 245 241 240 240 235 225 227 244 252 238 233 238 235 233 237 241 241 239 246 243 243 235 235 236 232 229 225 228 232 230 228
134 190 62 139 165 181 273 259 211 201 194 193 206 209 211 219 229 231 238 243 241 238 221 231 235 254 269 259 252 246 248 241 241 243 248 246 250 244 242 239 238 236 232 228 229 233 232 231 234
178 187 162 136 198 89 143 274 222 229 208 188 200 205 209 225 229 233 243 256 254 224 219 220 224 249 260 271 259 258 259 247 243 245 247 245 248 242 241 239 239 239 235 233 228 232 230 230 232